Alexandria, Egypt

2:52 PM EET on May 23, 2017 (GMT +0200)
Alexandria

Weather History for HEAX - September, 2012

Change the Weather History Date:

Friday, September 7, 2012

  Actual Average Record
Temperature  
Mean Temperature 82 °F -  
Max Temperature 88 °F 82 °F 96 °F (2007)
Min Temperature 77 °F 69 °F 67 °F (2016)
Cooling Degree Days 18    
Growing Degree Days 32 (Base 50)    
Moisture  
Dew Point 71 °F    
Average Humidity 69    
Maximum Humidity 78    
Minimum Humidity 51    
Precipitation  
Precipitation 0.00 in 0.00 in - ()
Sea Level Pressure  
Sea Level Pressure 29.86 in    
Wind  
Wind Speed 8 mph ()    
Max Wind Speed 13 mph    
Max Gust Speed -    
Visibility 6.2 miles    
Events      
Averages and records for this station are not official NWS values.
T = Trace of Precipitation, MM = Missing Value Source: Averaged Metar Reports

Daily Weather History Graph

Daily Weather History Graph

Search for Another Location

Airport or City:

Trip Planner

Search our weather history database for the weather conditions in past years. The results will help you decide how hot, cold, wet, or windy it might be!

Date:

Astronomy

Sep. 07, 2012 Rise Set
Actual Time 5:39 AM EET 6:15 PM EET
Civil Twilight 5:15 AM EET 6:40 PM EET
Nautical Twilight 4:46 AM EET 7:09 PM EET
Astronomical Twilight 4:17 AM EET 7:38 PM EET
Moon 10:23 PM EET (9/7) 11:47 AM EET (9/7)
Length of Visible Light 13h 24m
Length of Day
12h 36m
Waning Gibbous, 61% of the Moon is Illuminated
Sep 7
Waning Gibbous
Sep 8
Last Quarter
Sep 16
New
Sep 22
First Quarter
Sep 30
Full

Hourly Weather History & Observations

Time (EET) Temp. Heat Index Dew Point Humidity Pressure Visibility Wind Dir Wind Speed Gust Speed Precip Events Conditions
12:00 AM 78.8 °F - 71.6 °F 78% 29.89 in - NW 9.2 mph - N/A   Clear
1:00 AM 78.8 °F - 71.6 °F 78% 29.86 in - WNW 8.1 mph - N/A   Clear
2:00 AM 79 °F - 71 °F 70% 29.86 in 6 mi WNW 11.5 mph - -  
2:00 AM 78.8 °F - 71.6 °F 78% 29.86 in - WNW 11.5 mph - N/A   Clear
3:00 AM 78.8 °F - 71.6 °F 78% 29.86 in - NW 8.1 mph - N/A   Clear
4:00 AM 78.8 °F - 71.6 °F 78% 29.86 in - NW 8.1 mph - N/A   Clear
5:00 AM 78.8 °F - 71.6 °F 78% 29.86 in - WNW 8.1 mph - N/A   Clear
6:00 AM 78.8 °F - 69.8 °F 74% 29.86 in - WNW 9.2 mph - N/A   Clear
7:00 AM 80.6 °F 83.9 °F 69.8 °F 70% 29.86 in - WNW 12.7 mph - N/A   Clear
8:00 AM 82 °F - 71 °F 61% 29.87 in 6 mi NW 9.2 mph - -  
8:00 AM 82.4 °F 87.2 °F 71.6 °F 70% 29.86 in - NW 9.2 mph - N/A   Clear
9:00 AM 82.4 °F 87.2 °F 71.6 °F 70% 29.86 in - NW 11.5 mph - N/A   Clear
10:00 AM 84.2 °F 89.6 °F 71.6 °F 66% 29.89 in 6.2 mi NW 6.9 mph - N/A   Scattered Clouds
11:00 AM 86.0 °F 91.8 °F 71.6 °F 62% 29.89 in 6.2 mi NW 9.2 mph - N/A   Scattered Clouds
12:00 PM 86.0 °F 90.4 °F 69.8 °F 58% 29.86 in 6.2 mi WNW 9.2 mph - N/A   Scattered Clouds
1:00 PM 87.8 °F 93.8 °F 71.6 °F 58% 29.86 in 6.2 mi WNW 11.5 mph - N/A   Scattered Clouds
2:00 PM 87 °F - 71 °F 51% 29.84 in 6 mi WNW 11.5 mph - -   Partly Cloudy
2:00 PM 87.8 °F 93.8 °F 71.6 °F 58% 29.83 in 6.2 mi WNW 11.5 mph - N/A   Scattered Clouds
3:00 PM 86.0 °F 90.4 °F 69.8 °F 58% 29.83 in 6.2 mi WNW 11.5 mph - N/A   Scattered Clouds
4:00 PM 84.2 °F 89.6 °F 71.6 °F 66% 29.83 in 6.2 mi NW 10.4 mph - N/A   Scattered Clouds
5:00 PM 84.2 °F 88.4 °F 69.8 °F 62% 29.83 in 6.2 mi WNW 9.2 mph - N/A   Scattered Clouds
6:00 PM 80.6 °F 83.9 °F 69.8 °F 70% 29.83 in 6.2 mi NNW 10.4 mph - N/A   Scattered Clouds
7:00 PM 80.6 °F 83.9 °F 69.8 °F 70% 29.83 in 6.2 mi NNW 8.1 mph - N/A   Scattered Clouds
8:00 PM 80 °F - 71 °F 66% 29.86 in 6 mi NNW 6.9 mph - -   Partly Cloudy
8:00 PM 80.6 °F 84.6 °F 71.6 °F 74% 29.86 in 6.2 mi NNW 6.9 mph - N/A   Partly Cloudy
9:00 PM 78.8 °F - 69.8 °F 74% 29.86 in 6.2 mi NNW 6.9 mph - N/A   Scattered Clouds
10:00 PM 78.8 °F - 69.8 °F 74% 29.86 in 6.2 mi NW 5.8 mph - N/A   Scattered Clouds
11:00 PM 78.8 °F - 69.8 °F 74% 29.86 in - NW 6.9 mph - N/A   Clear